| time (UTC) | temp F | wind direction | speed MPH | gust MPH | rain 1hr in | rain 24hr in | rain mn in | humidity % | barometer mb |
| 20260509141532 | 57 | 174 | 0.0 | 0.0 | 0.00 | 0.00 | 0.00 | 75 | 1005.2 |
| 20260509141034 | 57 | 221 | 0.0 | 0.0 | 0.00 | 0.00 | 0.00 | 76 | 1005.2 |
| 20260509140530 | 57 | 169 | 0.0 | 0.0 | 0.00 | 0.00 | 0.00 | 78 | 1005.3 |
| 20260509140035 | 56 | 225 | 0.0 | 0.0 | 0.00 | 0.00 | 0.00 | 78 | 1005.2 |
| 20260509135530 | 56 | 200 | 0.0 | 0.0 | 0.00 | 0.00 | 0.00 | 78 | 1005.4 |
| 20260509135029 | 56 | 215 | 0.0 | 0.0 | 0.00 | 0.00 | 0.00 | 78 | 1005.3 |
| 20260509134530 | 56 | 173 | 0.0 | 0.0 | 0.00 | 0.00 | 0.00 | 78 | 1005.4 |
| 20260509134029 | 56 | 190 | 0.0 | 0.0 | 0.00 | 0.00 | 0.00 | 78 | 1005.4 |
| 20260509133530 | 56 | 179 | 0.0 | 0.0 | 0.00 | 0.00 | 0.00 | 78 | 1005.4 |
| 20260509133029 | 56 | 179 | 0.0 | 0.0 | 0.00 | 0.00 | 0.00 | 78 | 1005.4 |
| 20260509132528 | 56 | 183 | 0.0 | 0.0 | 0.00 | 0.00 | 0.00 | 78 | 1005.4 |
| 20260509132030 | 56 | 182 | 0.0 | 0.0 | 0.00 | 0.00 | 0.00 | 78 | 1005.5 |
| 20260509131533 | 56 | 219 | 0.0 | 0.0 | 0.00 | 0.00 | 0.00 | 79 | 1005.5 |
| 20260509131026 | 55 | 159 | 0.0 | 0.0 | 0.00 | 0.00 | 0.00 | 80 | 1005.4 |
| 20260509130526 | 55 | 172 | 0.0 | 0.0 | 0.00 | 0.00 | 0.00 | 80 | 1005.4 |
| 20260509130023 | 55 | 184 | 0.0 | 0.0 | 0.00 | 0.00 | 0.00 | 80 | 1005.5 |
| 20260509125524 | 54 | 174 | 0.0 | 0.0 | 0.00 | 0.00 | 0.00 | 81 | 1005.6 |
| 20260509125023 | 54 | 186 | 0.0 | 0.0 | 0.00 | 0.00 | 0.00 | 81 | 1005.6 |
| 20260509124520 | 53 | 156 | 0.0 | 0.0 | 0.00 | 0.00 | 0.00 | 81 | 1005.7 |
| 20260509124018 | 53 | 178 | 0.0 | 0.0 | 0.00 | 0.00 | 0.00 | 81 | 1005.8 |
| 20260509123518 | 53 | 153 | 0.0 | 0.0 | 0.00 | 0.00 | 0.00 | 82 | 1005.8 |
| 20260509123019 | 52 | 171 | 0.0 | 0.0 | 0.00 | 0.00 | 0.00 | 82 | 1005.8 |
| 20260509122515 | 52 | 172 | 0.0 | 0.0 | 0.00 | 0.00 | 0.00 | 82 | 1006.0 |
| 20260509122014 | 52 | 156 | 0.0 | 0.0 | 0.00 | 0.00 | 0.00 | 82 | 1006.0 |
| 20260509121514 | 51 | 166 | 0.0 | 0.0 | 0.00 | 0.00 | 0.00 | 82 | 1006.0 |
| 20260509121012 | 51 | 144 | 0.0 | 0.0 | 0.00 | 0.00 | 0.00 | 82 | 1006.0 |
| 20260509120513 | 51 | 155 | 0.0 | 0.0 | 0.00 | 0.00 | 0.00 | 82 | 1006.0 |
| 20260509120011 | 51 | 146 | 0.0 | 0.0 | 0.00 | 0.00 | 0.00 | 83 | 1006.1 |
| 20260509115510 | 50 | 183 | 0.0 | 0.0 | 0.00 | 0.00 | 0.00 | 83 | 1006.1 |
| 20260509115009 | 50 | 150 | 0.0 | 0.0 | 0.00 | 0.00 | 0.00 | 83 | 1006.1 |
| 20260509114508 | 50 | 171 | 0.0 | 0.0 | 0.00 | 0.00 | 0.00 | 83 | 1006.0 |
| 20260509114010 | 49 | 159 | 0.0 | 0.0 | 0.00 | 0.00 | 0.00 | 84 | 1006.0 |
| 20260509113506 | 49 | 173 | 0.0 | 0.0 | 0.00 | 0.00 | 0.00 | 84 | 1006.0 |
| 20260509113005 | 49 | 155 | 0.0 | 0.0 | 0.00 | 0.00 | 0.00 | 84 | 1006.0 |
| 20260509112505 | 48 | 152 | 0.0 | 0.0 | 0.00 | 0.00 | 0.00 | 85 | 1006.0 |
| 20260509112002 | 48 | 153 | 0.0 | 0.0 | 0.00 | 0.00 | 0.00 | 85 | 1005.9 |
| 20260509111501 | 47 | 155 | 0.0 | 0.0 | 0.00 | 0.00 | 0.00 | 85 | 1006.1 |
| 20260509111100 | 47 | 155 | 0.0 | 0.0 | 0.00 | 0.00 | 0.00 | 85 | 1006.2 |
| 20260509110558 | 46 | 155 | 0.0 | 0.0 | 0.00 | 0.00 | 0.00 | 85 | 1006.2 |
| 20260509105556 | 46 | 155 | 0.0 | 0.0 | 0.00 | 0.00 | 0.00 | 85 | 1006.3 |
| 20260509105056 | 45 | 155 | 0.0 | 0.0 | 0.00 | 0.00 | 0.00 | 85 | 1006.5 |
| 20260509104556 | 45 | 155 | 0.0 | 0.0 | 0.00 | 0.00 | 0.00 | 85 | 1006.4 |
| 20260509104056 | 45 | 155 | 0.0 | 0.0 | 0.00 | 0.00 | 0.00 | 85 | 1006.3 |
| 20260509103555 | 45 | 155 | 0.0 | 0.0 | 0.00 | 0.00 | 0.00 | 85 | 1006.3 |
| 20260509103102 | 45 | 155 | 0.0 | 0.0 | 0.00 | 0.00 | 0.00 | 85 | 1006.2 |
| 20260509102556 | 45 | 155 | 0.0 | 0.0 | 0.00 | 0.00 | 0.00 | 85 | 1006.2 |
| 20260509102057 | 44 | 155 | 0.0 | 0.0 | 0.00 | 0.00 | 0.00 | 85 | 1006.2 |
| 20260509101600 | 44 | 155 | 0.0 | 0.0 | 0.00 | 0.00 | 0.00 | 85 | 1006.2 |
| 20260509101054 | 43 | 155 | 0.0 | 0.0 | 0.00 | 0.00 | 0.00 | 83 | 1006.2 |
| 20260509100554 | 43 | 155 | 0.0 | 0.0 | 0.00 | 0.00 | 0.00 | 83 | 1006.2 |
| 20260509100054 | 43 | 155 | 0.0 | 0.0 | 0.00 | 0.00 | 0.00 | 82 | 1006.1 |
| 20260509095554 | 43 | 155 | 0.0 | 0.0 | 0.00 | 0.00 | 0.00 | 82 | 1006.1 |
| 20260509095053 | 43 | 155 | 0.0 | 0.0 | 0.00 | 0.00 | 0.00 | 82 | 1006.1 |
| 20260509094553 | 43 | 155 | 0.0 | 0.0 | 0.00 | 0.00 | 0.00 | 82 | 1006.1 |
| 20260509094053 | 43 | 155 | 0.0 | 0.0 | 0.00 | 0.00 | 0.00 | 81 | 1006.2 |
| 20260509093552 | 43 | 155 | 0.0 | 0.0 | 0.00 | 0.00 | 0.00 | 80 | 1006.1 |
| 20260509093055 | 43 | 155 | 0.0 | 0.0 | 0.00 | 0.00 | 0.00 | 80 | 1006.2 |
| 20260509092553 | 44 | 155 | 0.0 | 0.0 | 0.00 | 0.00 | 0.00 | 79 | 1006.2 |
| 20260509092052 | 44 | 155 | 0.0 | 0.0 | 0.00 | 0.00 | 0.00 | 79 | 1006.2 |
| 20260509091617 | 44 | 155 | 0.0 | 0.0 | 0.00 | 0.00 | 0.00 | 79 | 1006.2 |
| 20260509091052 | 45 | 155 | 0.0 | 0.0 | 0.00 | 0.00 | 0.00 | 79 | 1006.1 |
| 20260509090553 | 45 | 155 | 0.0 | 0.0 | 0.00 | 0.00 | 0.00 | 79 | 1006.2 |
| 20260509090050 | 45 | 155 | 0.0 | 0.0 | 0.00 | 0.00 | 0.00 | 78 | 1006.2 |
| 20260509085549 | 45 | 155 | 0.0 | 0.0 | 0.00 | 0.00 | 0.00 | 78 | 1006.3 |
| 20260509085049 | 45 | 155 | 0.0 | 0.0 | 0.00 | 0.00 | 0.00 | 77 | 1006.3 |
| 20260509084550 | 45 | 155 | 0.0 | 0.0 | 0.00 | 0.00 | 0.00 | 76 | 1006.4 |
| 20260509084049 | 45 | 155 | 0.0 | 0.0 | 0.00 | 0.00 | 0.00 | 76 | 1006.4 |
| 20260509083548 | 45 | 155 | 0.0 | 0.0 | 0.00 | 0.00 | 0.00 | 76 | 1006.4 |
| 20260509083052 | 45 | 155 | 0.0 | 0.0 | 0.00 | 0.00 | 0.00 | 75 | 1006.4 |
| 20260509082548 | 45 | 155 | 0.0 | 0.0 | 0.00 | 0.00 | 0.00 | 75 | 1006.4 |
| 20260509082051 | 45 | 155 | 0.0 | 0.0 | 0.00 | 0.00 | 0.00 | 75 | 1006.4 |
| 20260509081547 | 45 | 155 | 0.0 | 0.0 | 0.00 | 0.00 | 0.00 | 74 | 1006.3 |
| 20260509081045 | 45 | 155 | 0.0 | 0.0 | 0.00 | 0.00 | 0.00 | 74 | 1006.4 |
| 20260509080547 | 45 | 152 | 0.0 | 0.0 | 0.00 | 0.00 | 0.00 | 73 | 1006.5 |
| 20260509080051 | 45 | 152 | 0.0 | 0.0 | 0.00 | 0.00 | 0.00 | 73 | 1006.4 |
| 20260509075545 | 45 | 152 | 0.0 | 0.0 | 0.00 | 0.00 | 0.00 | 72 | 1006.6 |
| 20260509075045 | 45 | 152 | 0.0 | 0.0 | 0.00 | 0.00 | 0.00 | 71 | 1006.6 |
| 20260509074551 | 45 | 152 | 0.0 | 0.0 | 0.00 | 0.00 | 0.00 | 71 | 1006.6 |
| 20260509074043 | 45 | 152 | 0.0 | 0.0 | 0.00 | 0.00 | 0.00 | 70 | 1006.7 |
| 20260509073544 | 45 | 150 | 0.0 | 0.0 | 0.00 | 0.00 | 0.00 | 70 | 1006.7 |
| 20260509073113 | 45 | 148 | 0.0 | 0.0 | 0.00 | 0.00 | 0.00 | 69 | 1006.7 |
| 20260509072546 | 45 | 151 | 0.0 | 0.0 | 0.00 | 0.00 | 0.00 | 69 | 1006.7 |
| 20260509072041 | 45 | 151 | 0.0 | 0.0 | 0.00 | 0.00 | 0.00 | 69 | 1006.8 |
| 20260509071541 | 45 | 150 | 0.0 | 0.0 | 0.00 | 0.00 | 0.00 | 69 | 1006.9 |
| 20260509071039 | 45 | 142 | 0.0 | 0.0 | 0.00 | 0.00 | 0.00 | 70 | 1006.9 |
| 20260509070541 | 44 | 154 | 0.0 | 0.0 | 0.00 | 0.00 | 0.00 | 70 | 1006.9 |
| 20260509070038 | 44 | 177 | 0.0 | 0.0 | 0.00 | 0.00 | 0.00 | 71 | 1006.9 |
| 20260509065537 | 43 | 177 | 0.0 | 0.0 | 0.00 | 0.00 | 0.00 | 71 | 1007.0 |
| 20260509065036 | 43 | 177 | 0.0 | 0.0 | 0.00 | 0.00 | 0.00 | 70 | 1007.0 |
| 20260509064537 | 44 | 177 | 0.0 | 0.0 | 0.00 | 0.00 | 0.00 | 70 | 1007.1 |
| 20260509064035 | 44 | 177 | 0.0 | 0.0 | 0.00 | 0.00 | 0.00 | 70 | 1007.1 |
| 20260509063534 | 44 | 177 | 0.0 | 0.0 | 0.00 | 0.00 | 0.00 | 69 | 1007.2 |
| 20260509063035 | 44 | 177 | 0.0 | 0.0 | 0.00 | 0.00 | 0.00 | 69 | 1007.3 |
| 20260509062534 | 44 | 177 | 0.0 | 0.0 | 0.00 | 0.00 | 0.00 | 69 | 1007.3 |
| 20260509062033 | 44 | 177 | 0.0 | 0.0 | 0.00 | 0.00 | 0.00 | 69 | 1007.4 |
| 20260509061534 | 44 | 177 | 0.0 | 0.0 | 0.00 | 0.00 | 0.00 | 68 | 1007.5 |
| 20260509061032 | 44 | 177 | 0.0 | 0.0 | 0.00 | 0.00 | 0.00 | 68 | 1007.6 |
| 20260509060531 | 44 | 177 | 0.0 | 0.0 | 0.00 | 0.00 | 0.00 | 68 | 1007.7 |
| 20260509060042 | 44 | 196 | 0.0 | 0.0 | 0.00 | 0.00 | 0.00 | 68 | 1007.8 |
| 20260509055530 | 44 | 215 | 0.0 | 0.0 | 0.00 | 0.00 | 0.00 | 68 | 1007.9 |
| 20260509055033 | 44 | 221 | 0.0 | 0.0 | 0.00 | 0.00 | 0.00 | 68 | 1007.9 |
| 20260509054528 | 44 | 221 | 0.0 | 0.0 | 0.00 | 0.00 | 0.00 | 69 | 1007.9 |
| 20260509054028 | 43 | 221 | 0.0 | 0.0 | 0.00 | 0.00 | 0.00 | 69 | 1008.0 |
| 20260509053527 | 43 | 221 | 0.0 | 0.0 | 0.00 | 0.00 | 0.00 | 69 | 1008.1 |
| 20260509053032 | 43 | 222 | 0.0 | 0.0 | 0.00 | 0.00 | 0.00 | 69 | 1008.1 |
| 20260509052525 | 43 | 222 | 0.0 | 0.0 | 0.00 | 0.00 | 0.00 | 70 | 1008.2 |
| 20260509052025 | 43 | 222 | 0.0 | 0.0 | 0.00 | 0.00 | 0.00 | 70 | 1008.1 |
| 20260509051525 | 43 | 222 | 0.0 | 0.0 | 0.00 | 0.00 | 0.00 | 71 | 1008.2 |
| 20260509051023 | 42 | 222 | 0.0 | 0.0 | 0.00 | 0.00 | 0.00 | 72 | 1008.2 |
| 20260509050523 | 42 | 222 | 0.0 | 0.0 | 0.00 | 0.00 | 0.00 | 73 | 1008.3 |
| 20260509050022 | 42 | 222 | 0.0 | 0.0 | 0.00 | 0.00 | 0.00 | 73 | 1008.3 |
| 20260509045522 | 42 | 222 | 0.0 | 0.0 | 0.00 | 0.00 | 0.00 | 72 | 1008.3 |
| 20260509045020 | 42 | 222 | 0.0 | 0.0 | 0.00 | 0.00 | 0.00 | 72 | 1008.4 |
| 20260509044532 | 42 | 222 | 0.0 | 0.0 | 0.00 | 0.00 | 0.00 | 72 | 1008.5 |
| 20260509044021 | 42 | 222 | 0.0 | 0.0 | 0.00 | 0.00 | 0.00 | 72 | 1008.4 |
| 20260509043518 | 42 | 222 | 0.0 | 0.0 | 0.00 | 0.00 | 0.00 | 71 | 1008.5 |
| 20260509043024 | 42 | 222 | 0.0 | 0.0 | 0.00 | 0.00 | 0.00 | 70 | 1008.6 |
| 20260509042517 | 42 | 222 | 0.0 | 0.0 | 0.00 | 0.00 | 0.00 | 70 | 1008.7 |
| 20260509042018 | 42 | 222 | 0.0 | 0.0 | 0.00 | 0.00 | 0.00 | 69 | 1008.7 |
| 20260509041517 | 42 | 222 | 0.0 | 0.0 | 0.00 | 0.00 | 0.00 | 69 | 1008.8 |
| 20260509041016 | 42 | 222 | 0.0 | 0.0 | 0.00 | 0.00 | 0.00 | 69 | 1008.7 |
| 20260509040515 | 42 | 222 | 0.0 | 0.0 | 0.00 | 0.00 | 0.00 | 69 | 1008.6 |
| 20260509040014 | 42 | 222 | 0.0 | 0.0 | 0.00 | 0.00 | 0.00 | 69 | 1008.7 |
| 20260509035514 | 42 | 222 | 0.0 | 0.0 | 0.00 | 0.00 | 0.08 | 69 | 1008.8 |
| 20260509035015 | 42 | 222 | 0.0 | 0.0 | 0.00 | 0.00 | 0.08 | 69 | 1008.8 |
| 20260509034514 | 42 | 222 | 0.0 | 0.0 | 0.00 | 0.00 | 0.08 | 69 | 1009.0 |
| 20260509034017 | 42 | 222 | 0.0 | 0.0 | 0.00 | 0.00 | 0.08 | 69 | 1009.0 |
| 20260509033515 | 42 | 222 | 0.0 | 0.0 | 0.00 | 0.00 | 0.08 | 69 | 1009.0 |
| 20260509033014 | 42 | 222 | 0.0 | 0.0 | 0.00 | 0.00 | 0.08 | 68 | 1008.9 |
| 20260509032515 | 43 | 222 | 0.0 | 0.0 | 0.00 | 0.00 | 0.08 | 68 | 1009.1 |
| 20260509032014 | 43 | 222 | 0.0 | 0.0 | 0.00 | 0.00 | 0.08 | 67 | 1009.0 |
| 20260509031517 | 43 | 222 | 0.0 | 0.0 | 0.00 | 0.00 | 0.08 | 67 | 1009.1 |
| 20260509031013 | 43 | 222 | 0.0 | 0.0 | 0.00 | 0.00 | 0.08 | 67 | 1009.2 |
| 20260509030513 | 43 | 222 | 0.0 | 0.0 | 0.00 | 0.00 | 0.08 | 66 | 1009.2 |
| 20260509030012 | 43 | 222 | 0.0 | 0.0 | 0.00 | 0.00 | 0.08 | 66 | 1009.2 |
| 20260509025513 | 43 | 222 | 0.0 | 0.0 | 0.00 | 0.00 | 0.08 | 65 | 1009.2 |
| 20260509025012 | 44 | 222 | 0.0 | 0.0 | 0.00 | 0.00 | 0.08 | 64 | 1009.2 |
| 20260509024514 | 44 | 222 | 0.0 | 0.0 | 0.00 | 0.00 | 0.08 | 64 | 1009.2 |
| 20260509024013 | 44 | 222 | 0.0 | 0.0 | 0.00 | 0.00 | 0.08 | 63 | 1009.2 |
| 20260509023513 | 44 | 222 | 0.0 | 0.0 | 0.00 | 0.00 | 0.08 | 62 | 1009.3 |
| 20260509023013 | 45 | 222 | 0.0 | 0.0 | 0.00 | 0.00 | 0.08 | 60 | 1009.4 |
| 20260509022513 | 45 | 222 | 0.0 | 0.0 | 0.00 | 0.00 | 0.08 | 59 | 1009.4 |
| 20260509022012 | 45 | 222 | 0.0 | 0.0 | 0.00 | 0.00 | 0.08 | 59 | 1009.4 |
| 20260509021512 | 45 | 222 | 0.0 | 0.0 | 0.00 | 0.00 | 0.08 | 59 | 1009.3 |
| 20260509021011 | 46 | 222 | 0.0 | 0.0 | 0.00 | 0.00 | 0.08 | 59 | 1009.2 |
| 20260509020511 | 46 | 222 | 0.0 | 0.0 | 0.00 | 0.00 | 0.08 | 58 | 1009.3 |
| 20260509020011 | 46 | 222 | 0.0 | 0.0 | 0.00 | 0.00 | 0.08 | 57 | 1009.2 |
| 20260509015512 | 46 | 222 | 0.0 | 0.0 | 0.00 | 0.00 | 0.08 | 56 | 1009.1 |
| 20260509015011 | 47 | 222 | 0.0 | 0.0 | 0.00 | 0.00 | 0.08 | 54 | 1009.0 |
| 20260509014511 | 47 | 222 | 0.0 | 0.0 | 0.00 | 0.00 | 0.08 | 52 | 1008.9 |
| 20260509014010 | 47 | 222 | 0.0 | 0.0 | 0.00 | 0.00 | 0.08 | 51 | 1008.9 |
| 20260509013510 | 48 | 222 | 0.0 | 0.0 | 0.00 | 0.00 | 0.08 | 51 | 1008.9 |
| 20260509013011 | 48 | 222 | 0.0 | 0.0 | 0.00 | 0.00 | 0.08 | 50 | 1008.9 |
| 20260509012512 | 49 | 222 | 0.0 | 0.0 | 0.00 | 0.00 | 0.08 | 47 | 1008.8 |
| 20260509012010 | 49 | 222 | 0.0 | 0.0 | 0.00 | 0.00 | 0.08 | 45 | 1008.9 |
| 20260509011510 | 49 | 222 | 0.0 | 0.0 | 0.00 | 0.00 | 0.08 | 44 | 1008.9 |
| 20260509011010 | 50 | 222 | 0.0 | 0.0 | 0.00 | 0.00 | 0.08 | 43 | 1008.8 |
| 20260509010509 | 50 | 222 | 0.0 | 0.0 | 0.00 | 0.00 | 0.08 | 41 | 1008.8 |
| 20260509010016 | 51 | 222 | 0.0 | 0.0 | 0.00 | 0.00 | 0.08 | 40 | 1008.9 |
| 20260509005509 | 51 | 222 | 0.0 | 0.0 | 0.00 | 0.00 | 0.08 | 39 | 1008.9 |
| 20260509005009 | 52 | 222 | 0.0 | 0.0 | 0.00 | 0.00 | 0.08 | 37 | 1008.9 |
| 20260509004509 | 52 | 222 | 0.0 | 0.0 | 0.00 | 0.00 | 0.08 | 35 | 1008.9 |
| 20260509004009 | 52 | 222 | 0.0 | 0.0 | 0.00 | 0.00 | 0.08 | 35 | 1008.9 |
| 20260509003509 | 52 | 222 | 0.0 | 0.0 | 0.00 | 0.00 | 0.08 | 35 | 1008.8 |
| 20260509003018 | 53 | 219 | 0.0 | 0.0 | 0.00 | 0.00 | 0.08 | 35 | 1008.8 |
| 20260509002508 | 53 | 219 | 0.0 | 0.0 | 0.00 | 0.00 | 0.08 | 34 | 1008.8 |
| 20260509002008 | 53 | 221 | 0.0 | 0.0 | 0.00 | 0.00 | 0.08 | 34 | 1008.6 |
| 20260509001509 | 53 | 221 | 0.0 | 0.0 | 0.00 | 0.00 | 0.08 | 35 | 1008.6 |
| 20260509001007 | 54 | 221 | 0.0 | 0.0 | 0.00 | 0.00 | 0.08 | 34 | 1008.5 |
| 20260509000507 | 54 | 264 | 0.0 | 0.0 | 0.00 | 0.00 | 0.08 | 34 | 1008.5 |
| 20260509000008 | 54 | 238 | 0.0 | 0.0 | 0.00 | 0.00 | 0.08 | 33 | 1008.5 |
| 20260508235508 | 54 | 238 | 0.0 | 0.0 | 0.00 | 0.00 | 0.08 | 33 | 1008.4 |
| 20260508235008 | 55 | 236 | 0.0 | 0.0 | 0.00 | 0.00 | 0.08 | 32 | 1008.5 |
| 20260508234508 | 54 | 232 | 0.0 | 0.0 | 0.00 | 0.00 | 0.08 | 31 | 1008.5 |
| 20260508234007 | 55 | 180 | 0.0 | 0.0 | 0.00 | 0.00 | 0.08 | 32 | 1008.5 |
| 20260508233510 | 55 | 227 | 0.0 | 0.0 | 0.00 | 0.00 | 0.08 | 30 | 1008.5 |
| 20260508233007 | 55 | 171 | 0.0 | 0.0 | 0.00 | 0.00 | 0.08 | 30 | 1008.4 |
| 20260508232507 | 56 | 188 | 0.0 | 0.0 | 0.00 | 0.00 | 0.08 | 30 | 1008.5 |
| 20260508232007 | 56 | 211 | 0.0 | 0.0 | 0.00 | 0.00 | 0.08 | 29 | 1008.6 |
| 20260508231507 | 56 | 227 | 0.0 | 0.0 | 0.00 | 0.00 | 0.08 | 29 | 1008.5 |
| 20260508231006 | 56 | 205 | 0.0 | 0.0 | 0.00 | 0.00 | 0.08 | 30 | 1008.5 |
| 20260508230504 | 56 | 231 | 0.0 | 0.0 | 0.00 | 0.00 | 0.08 | 33 | 1008.5 |
| 20260508230007 | 56 | 226 | 0.0 | 0.0 | 0.00 | 0.00 | 0.08 | 35 | 1008.5 |
| 20260508225508 | 56 | 229 | 0.0 | 0.0 | 0.00 | 0.00 | 0.08 | 35 | 1008.5 |
| 20260508225004 | 56 | 214 | 0.0 | 0.0 | 0.00 | 0.00 | 0.08 | 36 | 1008.6 |
| 20260508224508 | 56 | 227 | 0.0 | 0.0 | 0.00 | 0.00 | 0.08 | 36 | 1008.6 |
| 20260508224003 | 57 | 209 | 0.0 | 0.0 | 0.00 | 0.00 | 0.08 | 37 | 1008.6 |
| 20260508223503 | 57 | 270 | 0.0 | 0.0 | 0.00 | 0.00 | 0.08 | 38 | 1008.6 |
| 20260508223013 | 56 | 271 | 0.0 | 0.0 | 0.00 | 0.00 | 0.08 | 36 | 1008.7 |
| 20260508222504 | 56 | 183 | 0.0 | 0.0 | 0.00 | 0.00 | 0.08 | 36 | 1008.7 |
| 20260508222003 | 56 | 190 | 0.0 | 0.0 | 0.00 | 0.00 | 0.08 | 36 | 1008.6 |
| 20260508221503 | 57 | 260 | 0.0 | 0.0 | 0.00 | 0.00 | 0.08 | 38 | 1008.6 |
| 20260508221004 | 57 | 222 | 0.0 | 0.0 | 0.00 | 0.00 | 0.08 | 36 | 1008.6 |
| 20260508220503 | 57 | 272 | 0.0 | 0.0 | 0.00 | 0.00 | 0.08 | 36 | 1008.7 |
| 20260508220002 | 57 | 244 | 0.0 | 0.0 | 0.00 | 0.00 | 0.08 | 36 | 1008.6 |
| 20260508215502 | 57 | 264 | 0.0 | 0.0 | 0.00 | 0.00 | 0.08 | 36 | 1008.7 |
| 20260508215002 | 57 | 273 | 0.0 | 0.0 | 0.00 | 0.00 | 0.08 | 37 | 1008.6 |
| 20260508214502 | 57 | 169 | 0.0 | 0.0 | 0.00 | 0.00 | 0.08 | 38 | 1008.6 |
| 20260508214001 | 57 | 238 | 0.0 | 0.0 | 0.00 | 0.00 | 0.08 | 37 | 1008.7 |
| 20260508213501 | 57 | 211 | 0.0 | 0.0 | 0.00 | 0.00 | 0.08 | 37 | 1008.6 |
| 20260508213002 | 57 | 292 | 0.0 | 0.0 | 0.00 | 0.00 | 0.08 | 38 | 1008.6 |
| 20260508212501 | 57 | 231 | 0.0 | 0.0 | 0.00 | 0.00 | 0.08 | 38 | 1008.6 |
| 20260508212000 | 57 | 255 | 0.0 | 0.0 | 0.00 | 0.00 | 0.08 | 39 | 1008.6 |
| 20260508211502 | 57 | 240 | 0.0 | 0.0 | 0.00 | 0.00 | 0.08 | 37 | 1008.5 |
| 20260508211100 | 57 | 232 | 0.0 | 0.0 | 0.00 | 0.00 | 0.08 | 38 | 1008.5 |
| 20260508210600 | 57 | 273 | 0.0 | 0.0 | 0.00 | 0.00 | 0.08 | 37 | 1008.5 |
| 20260508205559 | 57 | 279 | 0.0 | 0.0 | 0.00 | 0.00 | 0.08 | 38 | 1008.5 |
| 20260508205100 | 57 | 270 | 0.0 | 0.0 | 0.00 | 0.00 | 0.08 | 37 | 1008.5 |
| 20260508204602 | 58 | 242 | 0.0 | 0.0 | 0.00 | 0.00 | 0.08 | 36 | 1008.5 |
| 20260508204057 | 57 | 273 | 0.0 | 0.0 | 0.00 | 0.00 | 0.08 | 42 | 1008.6 |
| 20260508203557 | 57 | 196 | 0.0 | 0.0 | 0.00 | 0.00 | 0.08 | 38 | 1008.7 |
| 20260508203102 | 57 | 216 | 0.0 | 0.0 | 0.00 | 0.00 | 0.08 | 38 | 1008.8 |
| 20260508202557 | 57 | 206 | 0.0 | 0.0 | 0.00 | 0.00 | 0.08 | 38 | 1008.7 |
| 20260508202056 | 57 | 225 | 0.0 | 0.0 | 0.00 | 0.00 | 0.08 | 42 | 1008.9 |
| 20260508201557 | 57 | 235 | 0.0 | 0.0 | 0.00 | 0.00 | 0.08 | 38 | 1009.0 |
| 20260508201053 | 57 | 244 | 0.0 | 0.0 | 0.00 | 0.00 | 0.08 | 40 | 1009.0 |
| 20260508200552 | 57 | 223 | 0.0 | 0.0 | 0.00 | 0.00 | 0.08 | 43 | 1009.1 |
| 20260508200053 | 57 | 296 | 0.0 | 0.0 | 0.00 | 0.00 | 0.08 | 43 | 1009.1 |
| 20260508195550 | 56 | 157 | 0.0 | 0.0 | 0.00 | 0.00 | 0.08 | 45 | 1009.1 |
| 20260508195049 | 56 | 169 | 0.0 | 0.0 | 0.00 | 0.00 | 0.08 | 45 | 1009.2 |
| 20260508194555 | 56 | 232 | 0.0 | 0.0 | 0.00 | 0.00 | 0.08 | 47 | 1009.2 |
| 20260508194047 | 56 | 173 | 0.0 | 0.0 | 0.00 | 0.00 | 0.08 | 48 | 1009.4 |
| 20260508193546 | 55 | 175 | 0.0 | 0.0 | 0.00 | 0.00 | 0.08 | 50 | 1009.5 |
| 20260508193103 | 55 | 225 | 0.0 | 0.0 | 0.00 | 0.00 | 0.08 | 50 | 1009.5 |
| 20260508192546 | 55 | 173 | 0.0 | 0.0 | 0.00 | 0.00 | 0.08 | 52 | 1009.7 |
| 20260508192046 | 56 | 192 | 0.0 | 0.0 | 0.00 | 0.00 | 0.08 | 50 | 1009.7 |
| 20260508191546 | 56 | 178 | 0.0 | 0.0 | 0.00 | 0.00 | 0.08 | 51 | 1009.8 |
| 20260508191044 | 55 | 288 | 0.0 | 0.0 | 0.00 | 0.00 | 0.08 | 50 | 1009.8 |
| 20260508190544 | 55 | 180 | 0.0 | 0.0 | 0.00 | 0.00 | 0.08 | 53 | 1009.9 |
| 20260508190044 | 55 | 173 | 0.0 | 0.0 | 0.00 | 0.00 | 0.08 | 54 | 1010.0 |
| 20260508185542 | 55 | 180 | 0.0 | 0.0 | 0.00 | 0.00 | 0.08 | 53 | 1009.9 |
| 20260508185042 | 55 | 205 | 0.0 | 0.0 | 0.00 | 0.00 | 0.08 | 55 | 1010.0 |
| 20260508184550 | 54 | 273 | 0.0 | 0.0 | 0.00 | 0.00 | 0.08 | 57 | 1010.0 |
| 20260508184041 | 54 | 227 | 0.0 | 0.0 | 0.00 | 0.00 | 0.08 | 54 | 1010.0 |
| 20260508183542 | 54 | 275 | 0.0 | 0.0 | 0.00 | 0.00 | 0.08 | 55 | 1010.0 |
| 20260508183042 | 54 | 155 | 0.0 | 0.0 | 0.00 | 0.00 | 0.08 | 53 | 1010.1 |
| 20260508182541 | 54 | 247 | 0.0 | 0.0 | 0.00 | 0.00 | 0.08 | 56 | 1010.1 |
| 20260508182040 | 54 | 189 | 0.0 | 0.0 | 0.00 | 0.00 | 0.08 | 56 | 1010.1 |
| 20260508181552 | 54 | 165 | 0.0 | 0.0 | 0.00 | 0.00 | 0.08 | 56 | 1010.1 |
| 20260508181043 | 54 | 234 | 0.0 | 0.0 | 0.00 | 0.00 | 0.08 | 58 | 1010.0 |
| 20260508180540 | 54 | 159 | 0.0 | 0.0 | 0.00 | 0.00 | 0.08 | 58 | 1010.1 |
| 20260508180043 | 53 | 163 | 0.0 | 0.0 | 0.00 | 0.00 | 0.08 | 58 | 1010.1 |
| 20260508175540 | 54 | 182 | 0.0 | 0.0 | 0.00 | 0.00 | 0.08 | 58 | 1010.1 |
| 20260508175039 | 54 | 262 | 0.0 | 0.0 | 0.00 | 0.00 | 0.08 | 57 | 1010.1 |
| 20260508174539 | 54 | 192 | 0.0 | 0.0 | 0.00 | 0.00 | 0.08 | 55 | 1010.1 |
| 20260508174038 | 54 | 284 | 0.0 | 0.0 | 0.00 | 0.00 | 0.08 | 56 | 1010.2 |
| 20260508173538 | 53 | 267 | 0.0 | 0.0 | 0.00 | 0.00 | 0.08 | 56 | 1010.2 |
| 20260508173038 | 53 | 155 | 0.0 | 0.0 | 0.00 | 0.00 | 0.08 | 56 | 1010.4 |
| 20260508172538 | 53 | 200 | 0.0 | 0.0 | 0.00 | 0.00 | 0.08 | 55 | 1010.5 |
| 20260508172039 | 54 | 158 | 0.0 | 0.0 | 0.00 | 0.00 | 0.08 | 57 | 1010.4 |
| 20260508171543 | 53 | 225 | 0.0 | 0.0 | 0.00 | 0.00 | 0.08 | 57 | 1010.4 |
| 20260508171039 | 53 | 156 | 0.0 | 0.0 | 0.00 | 0.00 | 0.08 | 56 | 1010.4 |
| 20260508170537 | 53 | 244 | 0.0 | 0.0 | 0.00 | 0.00 | 0.08 | 58 | 1010.4 |
| 20260508170041 | 53 | 207 | 0.0 | 0.0 | 0.00 | 0.00 | 0.08 | 60 | 1010.5 |
| 20260508165536 | 53 | 239 | 0.0 | 0.0 | 0.00 | 0.00 | 0.08 | 54 | 1010.4 |
| 20260508165036 | 54 | 277 | 0.0 | 0.0 | 0.00 | 0.00 | 0.08 | 58 | 1010.4 |
| 20260508164535 | 53 | 330 | 0.0 | 0.0 | 0.00 | 0.00 | 0.08 | 57 | 1010.5 |
| 20260508164036 | 53 | 249 | 0.0 | 0.0 | 0.00 | 0.00 | 0.08 | 57 | 1010.6 |
| 20260508163536 | 53 | 234 | 0.0 | 0.0 | 0.00 | 0.00 | 0.08 | 57 | 1010.6 |
| 20260508163040 | 52 | 234 | 0.0 | 0.0 | 0.00 | 0.00 | 0.08 | 59 | 1010.8 |
| 20260508162535 | 52 | 290 | 0.0 | 0.0 | 0.00 | 0.00 | 0.08 | 60 | 1010.9 |
| 20260508162035 | 52 | 220 | 0.0 | 0.0 | 0.00 | 0.00 | 0.08 | 61 | 1010.9 |
| 20260508161536 | 52 | 257 | 0.0 | 0.0 | 0.00 | 0.00 | 0.08 | 58 | 1011.0 |
| 20260508161033 | 53 | 254 | 0.0 | 0.0 | 0.00 | 0.00 | 0.08 | 62 | 1010.9 |
| 20260508160533 | 52 | 317 | 0.0 | 0.0 | 0.00 | 0.00 | 0.08 | 64 | 1011.0 |
| 20260508160053 | 51 | 300 | 0.0 | 0.0 | 0.00 | 0.00 | 0.08 | 65 | 1011.0 |
| 20260508155532 | 51 | 243 | 0.0 | 0.0 | 0.00 | 0.00 | 0.08 | 67 | 1011.1 |
| 20260508155031 | 51 | 219 | 0.0 | 0.0 | 0.00 | 0.00 | 0.08 | 66 | 1011.0 |
| 20260508154533 | 52 | 237 | 0.0 | 0.0 | 0.00 | 0.00 | 0.08 | 67 | 1011.1 |
| 20260508154031 | 51 | 323 | 0.0 | 0.0 | 0.00 | 0.00 | 0.08 | 66 | 1011.1 |
| 20260508153530 | 51 | 288 | 0.0 | 0.0 | 0.00 | 0.00 | 0.08 | 65 | 1011.1 |
| 20260508153030 | 51 | 324 | 0.0 | 0.0 | 0.00 | 0.00 | 0.08 | 69 | 1011.3 |
| 20260508152527 | 50 | 282 | 0.0 | 0.0 | 0.00 | 0.00 | 0.08 | 67 | 1011.3 |
| 20260508152026 | 50 | 319 | 0.0 | 0.0 | 0.00 | 0.00 | 0.08 | 71 | 1011.3 |
| 20260508151525 | 49 | 255 | 0.0 | 0.0 | 0.00 | 0.00 | 0.08 | 70 | 1011.4 |
| 20260508151024 | 49 | 305 | 0.0 | 0.0 | 0.00 | 0.00 | 0.08 | 73 | 1011.4 |
| 20260508150522 | 48 | 271 | 0.0 | 0.0 | 0.00 | 0.00 | 0.08 | 76 | 1011.4 |
| 20260508150022 | 48 | 269 | 0.0 | 0.0 | 0.00 | 0.00 | 0.08 | 78 | 1011.5 |
| 20260508145522 | 47 | 269 | 0.0 | 0.0 | 0.00 | 0.00 | 0.08 | 77 | 1011.4 |
| 20260508145022 | 47 | 262 | 0.0 | 0.0 | 0.00 | 0.00 | 0.08 | 79 | 1011.4 |
| 20260508144518 | 47 | 262 | 0.0 | 0.0 | 0.00 | 0.00 | 0.08 | 79 | 1011.4 |
| 20260508144018 | 46 | 325 | 0.0 | 0.0 | 0.00 | 0.00 | 0.08 | 80 | 1011.4 |
| 20260508143516 | 46 | 263 | 0.0 | 0.0 | 0.00 | 0.00 | 0.08 | 80 | 1011.4 |
| 20260508143019 | 46 | 258 | 0.0 | 0.0 | 0.00 | 0.00 | 0.08 | 82 | 1011.4 |
| 20260508142519 | 46 | 269 | 0.0 | 0.0 | 0.00 | 0.00 | 0.08 | 83 | 1011.3 |
| 20260508142015 | 45 | 246 | 0.0 | 0.0 | 0.00 | 0.00 | 0.08 | 83 | 1011.3 |